Weather History for KNQX - January, 2013

Change the Weather History Date:

Saturday, January 12, 2013

  Actual Average Record
Temperature  
Mean Temperature 78 °F -  
Max Temperature 82 °F 74 °F 84 °F (1993)
Min Temperature 73 °F 64 °F 48 °F (1981)
Cooling Degree Days 12    
Growing Degree Days 28 (Base 50)    
Moisture  
Dew Point 68 °F    
Average Humidity 73    
Maximum Humidity 83    
Minimum Humidity 61    
Precipitation  
Precipitation 0.00 in - - ()
Sea Level Pressure  
Sea Level Pressure 30.10 in    
Wind  
Wind Speed 13 mph (East)    
Max Wind Speed 18 mph    
Max Gust Speed 23 mph    
Visibility 10 miles    
Events      
Averages and records for this station are not official NWS values.
T = Trace of Precipitation, MM = Missing Value Source: NWS Daily Summary

Daily Weather History Graph

Daily Weather History Graph

Search for Another Location

Airport or City:

Trip Planner

Search our weather history database for the weather conditions in past years. The results will help you decide how hot, cold, wet, or windy it might be!

Date:

Astronomy

Jan. 12, 2013 Rise Set
Actual Time 7:12 AM EST 5:57 PM EST
Civil Twilight 6:48 AM EST 6:22 PM EST
Nautical Twilight 6:20 AM EST 6:50 PM EST
Astronomical Twilight 5:52 AM EST 7:18 PM EST
Moon 7:40 AM EST (1/12) 7:12 PM EST (1/12)
Length of Visible Light 11h 34m
Length of Day
10h 45m
New Moon, 1% of the Moon is Illuminated
Jan 12
New Moon
Jan 18
First Quarter
Jan 26
Full
Feb 3
Last Quarter
Feb 10
New

Hourly Weather History & Observations

Time (EST) Temp. Heat Index Dew Point Humidity Pressure Visibility Wind Dir Wind Speed Gust Speed Precip Events Conditions
12:53 AM 75.9 °F - 69.1 °F 79% 30.11 in 10.0 mi East 15.0 mph - N/A   Scattered Clouds
1:53 AM 75.9 °F - 69.1 °F 79% 30.11 in 10.0 mi ESE 10.4 mph - N/A   Mostly Cloudy
2:05 AM 75.2 °F - 69.8 °F 83% 30.11 in 10.0 mi East 10.4 mph - N/A   Mostly Cloudy
2:12 AM 75.2 °F - 69.8 °F 83% 30.11 in 10.0 mi East 12.7 mph - N/A   Mostly Cloudy
2:53 AM 75.9 °F - 69.1 °F 79% 30.10 in 10.0 mi ESE 9.2 mph - N/A   Scattered Clouds
3:53 AM 75.9 °F - 66.9 °F 74% 30.10 in 10.0 mi ESE 12.7 mph - N/A   Partly Cloudy
4:53 AM 75.0 °F - 68.0 °F 79% 30.09 in 10.0 mi East 13.8 mph - N/A   Partly Cloudy
5:53 AM 75.0 °F - 68.0 °F 79% 30.10 in 10.0 mi East 10.4 mph - N/A   Scattered Clouds
6:53 AM 75.0 °F - 68.0 °F 79% 30.11 in 10.0 mi East 9.2 mph - N/A   Scattered Clouds
7:53 AM 75.9 °F - 68.0 °F 76% 30.13 in 10.0 mi ESE 10.4 mph - N/A   Scattered Clouds
8:53 AM 79.0 °F - 66.9 °F 66% 30.13 in 10.0 mi ESE 15.0 mph - N/A   Scattered Clouds
9:53 AM 80.1 °F 82.7 °F 68.0 °F 67% 30.15 in 10.0 mi ESE 12.7 mph - N/A   Scattered Clouds
10:53 AM 82.0 °F 85.5 °F 69.1 °F 65% 30.14 in 10.0 mi ESE 15.0 mph - N/A   Scattered Clouds
11:53 AM 81.0 °F 84.1 °F 69.1 °F 67% 30.11 in 10.0 mi East 16.1 mph - N/A   Scattered Clouds
12:53 PM 81.0 °F 83.3 °F 66.9 °F 62% 30.08 in 10.0 mi East 17.3 mph - N/A   Scattered Clouds
1:53 PM 81.0 °F 83.2 °F 66.2 °F 61% 30.07 in 10.0 mi East 18.4 mph - N/A   Scattered Clouds
2:53 PM 79.0 °F - 67.3 °F 67% 30.07 in 10.0 mi East 16.1 mph 23.0 mph N/A   Scattered Clouds
3:53 PM 80.1 °F 82.4 °F 67.3 °F 65% 30.06 in 10.0 mi East 15.0 mph - N/A   Scattered Clouds
4:53 PM 78.1 °F - 66.0 °F 66% 30.08 in 10.0 mi East 13.8 mph - N/A   Partly Cloudy
5:53 PM 75.9 °F - 66.0 °F 71% 30.08 in 10.0 mi East 13.8 mph - N/A   Partly Cloudy
6:53 PM 75.0 °F - 66.0 °F 73% 30.10 in 10.0 mi East 10.4 mph - N/A   Partly Cloudy
7:53 PM 75.0 °F - 66.0 °F 73% 30.11 in 10.0 mi ENE 6.9 mph - N/A   Scattered Clouds
8:53 PM 75.0 °F - 66.0 °F 73% 30.10 in 10.0 mi East 10.4 mph - N/A   Partly Cloudy
9:53 PM 73.9 °F - 66.0 °F 76% 30.10 in 10.0 mi East 8.1 mph - N/A   Partly Cloudy
10:53 PM 73.9 °F - 66.0 °F 76% 30.08 in 10.0 mi East 10.4 mph - N/A   Clear
11:53 PM 73.9 °F - 66.9 °F 79% 30.07 in 10.0 mi East 11.5 mph - N/A   Clear